• In Österreich
  • Länderverzeichnis
  • Für 7 Tage
  • Wassertemperatur
  • Satellitenkarten
  • Wetterkarte
  • News
  • Widgets
  • user-avatar
    Anmelden

    Stündliche Wetter Kerimäki

    Heute, 21 Juli, Samstag

    Zeit Temperatur Niederschläge Wind Luftdruck Luftfeuchtigkeit
    00:00 +19°C° 0 mm 3 m/S 749 mmHg 94%
    01:00 +19°C° 0 mm 3 m/S 749 mmHg 94%
    02:00 +18°C° 0 mm 2 m/S 749 mmHg 95%
    03:00 +19°C° 0,2 mm 3 m/S 749 mmHg 95%
    04:00 +19°C° 0,2 mm 3 m/S 748 mmHg 95%
    05:00 +19°C° 0,2 mm 3 m/S 748 mmHg 95%
    06:00 +19°C° 1 mm 3 m/S 748 mmHg 94%
    07:00 +20°C° 1 mm 3 m/S 748 mmHg 93%
    08:00 +20°C° 0 mm 3 m/S 748 mmHg 93%
    09:00 +20°C° 0,8 mm 3 m/S 748 mmHg 92%
    10:00 +21°C° 0,8 mm 3 m/S 748 mmHg 92%
    11:00 +21°C° 0,8 mm 3 m/S 748 mmHg 92%
    12:00 +22°C° 0,2 mm 3 m/S 747 mmHg 87%
    13:00 +23°C° 0,2 mm 4 m/S 747 mmHg 83%
    14:00 +23°C° 0 mm 4 m/S 747 mmHg 81%
    15:00 +23°C° 0,2 mm 4 m/S 747 mmHg 80%
    16:00 +23°C° 0,2 mm 4 m/S 747 mmHg 80%
    17:00 +23°C° 0,2 mm 4 m/S 747 mmHg 79%
    18:00 +22°C° 0,3 mm 4 m/S 747 mmHg 83%
    19:00 +22°C° 0,3 mm 3 m/S 746 mmHg 87%
    20:00 +21°C° 0,3 mm 3 m/S 746 mmHg 90%
    21:00 +21°C° 0,4 mm 3 m/S 746 mmHg 92%
    22:00 +20°C° 0,4 mm 3 m/S 746 mmHg 95%
    23:00 +20°C° 0,4 mm 3 m/S 746 mmHg 97%

    Morgen, 22 Juli, Sonntag

    Zeit Temperatur Niederschläge Wind Luftdruck Luftfeuchtigkeit
    00:00 +20°C° 0 mm 3 m/S 746 mmHg 97%
    01:00 +19°C° 0 mm 3 m/S 746 mmHg 98%
    02:00 +19°C° 0 mm 2 m/S 746 mmHg 98%
    03:00 +19°C° 0 mm 2 m/S 747 mmHg 98%
    04:00 +19°C° 0 mm 2 m/S 747 mmHg 98%
    05:00 +19°C° 0 mm 2 m/S 747 mmHg 97%
    06:00 +20°C° 0 mm 2 m/S 747 mmHg 95%
    07:00 +20°C° 0 mm 2 m/S 748 mmHg 92%
    08:00 +21°C° 0 mm 2 m/S 748 mmHg 89%
    09:00 +22°C° 0 mm 3 m/S 748 mmHg 80%
    10:00 +25°C° 0 mm 3 m/S 748 mmHg 72%
    11:00 +26°C° 0 mm 3 m/S 749 mmHg 63%
    12:00 +27°C° 0 mm 3 m/S 748 mmHg 61%
    13:00 +27°C° 0 mm 3 m/S 748 mmHg 58%
    14:00 +28°C° 0 mm 3 m/S 748 mmHg 55%
    15:00 +28°C° 0,1 mm 3 m/S 748 mmHg 56%
    16:00 +27°C° 0,1 mm 3 m/S 748 mmHg 57%
    17:00 +27°C° 0,1 mm 2 m/S 748 mmHg 58%
    18:00 +26°C° 0,1 mm 2 m/S 748 mmHg 63%
    19:00 +25°C° 0,1 mm 2 m/S 748 mmHg 69%
    20:00 +24°C° 0,1 mm 2 m/S 749 mmHg 74%
    21:00 +23°C° 0 mm 2 m/S 749 mmHg 79%
    22:00 +21°C° 0 mm 2 m/S 749 mmHg 84%
    23:00 +20°C° 0 mm 2 m/S 749 mmHg 88%

    übermorgen, 23 Juli, Montag

    Zeit Temperatur Niederschläge Wind Luftdruck Luftfeuchtigkeit
    00:00 +19°C° 0 mm 2 m/S 750 mmHg 88%
    01:00 +19°C° 0 mm 2 m/S 750 mmHg 89%
    02:00 +19°C° 0 mm 1 m/S 750 mmHg 89%
    03:00 +19°C° 0 mm 1 m/S 750 mmHg 87%
    04:00 +19°C° 0 mm 1 m/S 750 mmHg 86%
    05:00 +20°C° 0 mm 1 m/S 751 mmHg 84%
    06:00 +21°C° 0 mm 1 m/S 751 mmHg 77%
    07:00 +22°C° 0 mm 1 m/S 751 mmHg 70%
    08:00 +24°C° 0 mm 1 m/S 751 mmHg 63%
    09:00 +25°C° 0 mm 1 m/S 751 mmHg 58%
    10:00 +26°C° 0 mm 2 m/S 751 mmHg 53%
    11:00 +27°C° 0 mm 2 m/S 751 mmHg 48%
    12:00 +28°C° 0 mm 2 m/S 751 mmHg 46%
    13:00 +28°C° 0 mm 2 m/S 751 mmHg 43%
    14:00 +28°C° 0 mm 2 m/S 751 mmHg 41%
    15:00 +28°C° 0 mm 2 m/S 751 mmHg 42%
    16:00 +28°C° 0 mm 2 m/S 751 mmHg 42%
    17:00 +28°C° 0 mm 2 m/S 751 mmHg 43%
    18:00 +26°C° 0 mm 2 m/S 751 mmHg 52%
    19:00 +25°C° 0 mm 2 m/S 752 mmHg 60%
    20:00 +23°C° 0 mm 2 m/S 752 mmHg 68%
    21:00 +21°C° 0 mm 2 m/S 752 mmHg 76%
    22:00 +20°C° 0 mm 2 m/S 752 mmHg 83%
    23:00 +19°C° 0 mm 2 m/S 752 mmHg 91%

    24 Juli, Dienstag

    Zeit Temperatur Niederschläge Wind Luftdruck Luftfeuchtigkeit
    00:00 +18°C° 0 mm 2 m/S 753 mmHg 91%
    01:00 +18°C° 0 mm 2 m/S 753 mmHg 91%
    02:00 +19°C° 0 mm 1 m/S 753 mmHg 91%
    03:00 +19°C° 0 mm 1 m/S 753 mmHg 90%
    04:00 +19°C° 0 mm 1 m/S 753 mmHg 89%
    05:00 +19°C° 0 mm 1 m/S 753 mmHg 87%
    06:00 +21°C° 0 mm 1 m/S 754 mmHg 81%
    07:00 +23°C° 0 mm 2 m/S 754 mmHg 74%
    08:00 +24°C° 0 mm 2 m/S 754 mmHg 67%
    09:00 +25°C° 0,1 mm 2 m/S 754 mmHg 63%
    10:00 +26°C° 0,1 mm 2 m/S 754 mmHg 59%
    11:00 +27°C° 0,1 mm 2 m/S 754 mmHg 55%
    12:00 +28°C° 0,1 mm 2 m/S 754 mmHg 53%
    13:00 +28°C° 0,1 mm 3 m/S 754 mmHg 52%
    14:00 +28°C° 0,1 mm 3 m/S 754 mmHg 50%
    15:00 +28°C° 0 mm 3 m/S 754 mmHg 49%
    16:00 +28°C° 0 mm 3 m/S 754 mmHg 49%
    17:00 +27°C° 0 mm 3 m/S 754 mmHg 49%
    18:00 +26°C° 0 mm 3 m/S 754 mmHg 52%
    19:00 +24°C° 0 mm 2 m/S 754 mmHg 56%
    20:00 +23°C° 0 mm 2 m/S 754 mmHg 60%
    21:00 +21°C° 0 mm 2 m/S 755 mmHg 63%
    22:00 +19°C° 0 mm 2 m/S 755 mmHg 66%
    23:00 +18°C° 0 mm 2 m/S 755 mmHg 69%

    25 Juli, Mittwoch

    Zeit Temperatur Niederschläge Wind Luftdruck Luftfeuchtigkeit
    00:00 +18°C° 0 mm 2 m/S 755 mmHg 72%
    01:00 +18°C° 0 mm 1 m/S 755 mmHg 75%
    02:00 +18°C° 0 mm 1 m/S 755 mmHg 77%
    03:00 +18°C° 0 mm 1 m/S 755 mmHg 78%
    04:00 +19°C° 0 mm 1 m/S 755 mmHg 78%
    05:00 +19°C° 0 mm 1 m/S 756 mmHg 78%
    06:00 +21°C° 0 mm 1 m/S 756 mmHg 73%
    07:00 +21°C° 0 mm 2 m/S 756 mmHg 67%
    08:00 +24°C° 0 mm 2 m/S 756 mmHg 62%
    09:00 +25°C° 0 mm 2 m/S 756 mmHg 59%
    10:00 +26°C° 0 mm 2 m/S 756 mmHg 57%
    11:00 +27°C° 0 mm 2 m/S 756 mmHg 54%
    12:00 +27°C° 0 mm 2 m/S 755 mmHg 53%
    13:00 +28°C° 0 mm 2 m/S 755 mmHg 53%
    14:00 +28°C° 0 mm 2 m/S 755 mmHg 52%
    15:00 +28°C° 0 mm 2 m/S 755 mmHg 53%
    16:00 +28°C° 0 mm 2 m/S 755 mmHg 53%
    17:00 +28°C° 0 mm 2 m/S 755 mmHg 54%
    18:00 +27°C° 0 mm 2 m/S 755 mmHg 60%
    19:00 +25°C° 0 mm 1 m/S 755 mmHg 65%
    20:00 +24°C° 0 mm 1 m/S 755 mmHg 71%
    21:00 +23°C° 0 mm 1 m/S 755 mmHg 74%
    22:00 +22°C° 0 mm 1 m/S 756 mmHg 78%
    23:00 +21°C° 0 mm 1 m/S 756 mmHg 82%

    26 Juli, Donnerstag

    Zeit Temperatur Niederschläge Wind Luftdruck Luftfeuchtigkeit
    00:00 +20°C° 0 mm 1 m/S 756 mmHg 84%
    01:00 +20°C° 0 mm 1 m/S 756 mmHg 86%
    02:00 +17°C° 0 mm 0 m/S 756 mmHg 88%
    03:00 +18°C° 0 mm 0 m/S 756 mmHg 87%
    04:00 +18°C° 0 mm 0 m/S 757 mmHg 85%
    05:00 +19°C° 0 mm 0 m/S 757 mmHg 84%
    06:00 +20°C° 0,1 mm 0 m/S 757 mmHg 78%
    07:00 +22°C° 0,1 mm 0 m/S 757 mmHg 72%
    08:00 +26°C° 0,1 mm 1 m/S 758 mmHg 66%
    09:00 +27°C° 0 mm 1 m/S 758 mmHg 62%
    10:00 +28°C° 0 mm 1 m/S 758 mmHg 57%
    11:00 +30°C° 0 mm 1 m/S 758 mmHg 53%
    12:00 +30°C° 0 mm 1 m/S 758 mmHg 51%
    13:00 +30°C° 0 mm 1 m/S 758 mmHg 49%
    14:00 +31°C° 0 mm 1 m/S 758 mmHg 47%
    15:00 +31°C° 0 mm 1 m/S 758 mmHg 48%
    16:00 +30°C° 0 mm 1 m/S 758 mmHg 48%
    17:00 +30°C° 0 mm 1 m/S 759 mmHg 48%
    18:00 +28°C° 0 mm 1 m/S 759 mmHg 53%
    19:00 +27°C° 0 mm 1 m/S 759 mmHg 58%
    20:00 +25°C° 0 mm 2 m/S 759 mmHg 63%
    21:00 +24°C° 0 mm 1 m/S 760 mmHg 65%
    22:00 +23°C° 0 mm 1 m/S 760 mmHg 67%
    23:00 +22°C° 0 mm 1 m/S 761 mmHg 68%
    Mehr zeigen